Погода Ивано-Франковск

Поиск расширенной информации на нашем сайте:

Полезная информация:

Новости сайта



02.01.2020
Опубликован Долгосрочный прогноз погоды по городам России и ближнего зарубежья на январь 2020 года.
Карты: Прогноз на январь и февраль 2020 года, Сравнение прогнозируемой аномалии приземной температуры воздуха на январь 2020 года по разным моделям.




Погода Ивано-Франковск - сегодня

Время (UTC), дата Ветер
(°,м/с) 
Видим.   Явления Облачность Т
(°С)
Тd
(°С)
f(%) Тe
(°С)
Pmin
(гПа)
dP
(гПа)
Po
(мм)
O2
(г/м3)
Тmin Tmax R s Состояние
почвы
09 04.06.20 120 (ЮВ) 50000 м  {ливн. осадки}  4/3 1500 м средняя 
[Sc|Ac trans]
+15.8 +8.7 63 +17  1003.9  -0.3  729  276           
12 04.06.20 200 (Ю) 50000 м  {ливн. осадки}  8/6 1380 м средняя 
[Sc|Ac trans]
+19.7 +9.7 52 +21  1002.8  -0.7  728  272      0.9     
15 04.06.20 210 (ЮЗ) 10 км  слаб. ливневой дождь  8/8 600 м кучево-дожд. 
[Cb cap]
+13.8 +11.4 85 +18  1003.9  0.5  728  277           
18 04.06.20 120 (ЮВ) 50000 м  {ливн. осадки}  6/0 средняя 
[Ac trans]
+13.5 +11.5 88 +18  1002.8  -1.1  728  277    +19.8     
21 04.06.20 150 (ЮВ) 20000 м    8/0 средняя 
[Ac trans]
+12.1 +11.2 94 +15  1003  728  279           
00 05.06.20 140 (ЮВ) 10 км  в посл. час ливневой дождь  9/9 900 м кучево-дожд. 
[Cb cap]
+13.1 +12.4 96 +18  1001.8  -1  727  277      0.8     
03 05.06.20 050 (СВ) 20000 м    9/9 1380 м 
[Sc]
+12.5 +12.1 97 +18  1001.8  -0.1  727  278           
06 05.06.20 220 (ЮЗ) 50000 м    9/0 средняя 
[Ac trans]
+14.8 +13.6 93 +23  1003  1.4  728  275  +11.9    0.8     
09 05.06.20 160 (Ю) 50000 м  {ливн. осадки}  6/0 средняя 
[Ac und]
+19.5 +12.7 65 +26  1003.4  0.9  729  271           
12 05.06.20 170 (Ю) 50000 м  {ливн. осадки}  5/0 средняя 
[Ac trans]
+24.8 +11.1 42 +28  1002.3  -0.5  728  267      0.1     
15 05.06.20 180 (Ю) 50000 м    8/0 средняя 
[Ac trans]
+25.4 +12.4 44 +31  1002.1  -0.1  728  266           
18 05.06.20 060 (СВ) 50000 м    8/4 1000 м средняя 
[Sc|Ac trans]
+20.1 +15.3 74 +30  1003.2  0.5  728  270    +25.6  0.1     
21 05.06.20 240 (ЮЗ) 10 км    8/4 1000 м средняя 
[Sc|Ac trans]
+16.3 +14 86 +25  1004.9  1.3  729  274           
00 06.06.20 200 (Ю) 10 км    4/4 1000 м 
[Sc]
+18.5 +12.5 68 +24  1005.8  730  273           
03 06.06.20 тихо ()   20000 м    6/4 1000 м средняя 
[Sc|Ac trans]
+16.6 +12.7 78 +22  1007.1  1.1  731  275           
06 06.06.20 тихо ()   20000 м    8/0 средняя 
[Ac trans]
+19.9 +15 73 +29  1008.4  1.6  732  272  +15.8         
09 06.06.20 150 (ЮВ) 20000 м    8/0 средняя 
[Ac trans]
+22 +14 60 +30  1009.3  1.1  733  271           
12 06.06.20 220 (ЮЗ) 20000 м    9/0 средняя 
[Ac trans]
+24.7 +13.4 49 +31  1009.7  0.7  734  268           
15 06.06.20 100 (В) 20000 м    6/0 средняя 
[Ac trans]
+25.6 +14.5 50 +34  1008.5  -1.1  733  267           
18 06.06.20 120 (ЮВ) 20000 м    9/0 средняя 
[Ac trans]
+22.5 +15 63 +32  1009.2  0.4  733  270    +26       
21 06.06.20 тихо ()   10 км    8/0 средняя 
[Ac trans]
+17.9 +16.4 91 +30  1009.6  0.1  733  274           
00 07.06.20 тихо ()   10 км    6/0 средняя 
[Ac trans]
+16.1 +15.1 94 +26  1009.4  -0.4  733  276           
03 07.06.20 тихо ()   10 км    8/0 средняя 
[Ac trans]
+15.5 +14.5 94 +24  1009.5  733  276           
06 07.06.20 090 (В) 10 км    6/0 средняя 
[Ac trans]
+20.6 +16.7 78 +33  1009.3  0.4  733  271  +15.2         
09 07.06.20 080 (В) 10 км    8/0 средняя 
[Ac trans]
+24.2 +17.9 68 +39  1008.7  -0.2  733  267           
Время (UTC), дата Ветер
(°,м/с) 
Видим.   Явления Облачность Т
(°С)
Тd
(°С)
f(%) Тe
(°С)
Pmin
(гПа)
dP
(гПа)
Po
(мм)
O2
(г/м3)
Тmin Tmax R s Состояние
почвы

Для получения пояснительной информации подведите курсор к названию столбца.

ПОГОДА Ивано-Франковск - архив

Всё, что Вы хотите узнать о погоде Ивано-Франковск - удобно и подробно!

Выберите нужную дату (начиная с 1 января 2019* года) и нажмите кнопку "Найти".
Будут отображены архивные сводки погоды по пункту Ивано-Франковск, начиная с указанной даты.


Отображать данные в формате CSV (для использования в таблицах Excel)


Внимание! Наш архив погоды предназначен исключительно для личного некоммерческого использования в познавательных целях. Если Вам необходимы официальные справки о состоянии погоды (для производственных, юридических, коммерческих и т.п. целей), обращайтесь в органы Росгидромета.

*Примечание: данная дата относится к архиву по метеостанциям СССР (Россия, СНГ, Балтия).
Архив по метеостанциям Зарубежной Европы и Азии (кроме Китая) хранится 10 дней, по другим регионам земного шара (Китай, Африка, Америка, Австралия, Океания) - 1 день.

Ивано-Франковск - район местоположения метеостанции


Название, широта, долгота, высота метеостанции:
Ивано-Франковск 49°ш. 24.4°д. 280 м над ур. моря [Украина]

Дополнительная информация

В oтличие oт бoльшинства пoгoдных сайтoв мы публикуем пoдрoбную метеoинфoрмацию в детальнoм прoфессиoнальнoм фoрмате.

Характеристики температуры и влажнoсти вoздуха измеряются на высoте 2 м в тени вдали oт зданий и деревьев.
Скoрoсть ветра измеряется на высoте 10 м (на урoвне рoста челoвека скoрoсть ветра ниже в 1.5-2 раза). Если метеoстанция нахoдится в гoрoде или в лесу, тo скoрoсть ветра занижена на 2-4 м/с пo сравнению с oткрытым местoм. Скoрoсть ветра над акватoриями крупных рек и oзёр, а также на вершинах хoлмoв на 2-5 м/с выше, чем в oбычных услoвиях.
Атмoсфернoе давление в разных тoчках местнoсти мoжет значительнo oтличаться oт давления на метеoстанции, в зависимoсти oт услoвий рельефа (при пoдъёме на 10 м давление пoнижается примернo на 1 мм рт.ст.).